Simultaneous Nadir Overpasses (SNOs) Predictions

Prediction of SNOs between LANDSAT-8 and NOAA-19 Satellite Orbit:

Table of predicted SNOs for the next 14.0 days since TLE Epoch: 5/2/2020
Index Date (LANDSAT-8) Time (LANDSAT-8) Lat,Lon (LANDSAT-8) SZA (LANDSAT-8 ) Date (NOAA-19) Time (NOAA-19) Lat,Lon (NOAA-19) SZA (NOAA-19 ) Distance(km) Time Diff (sec)
1 05/04/2020 05:28:02 -79.70, -57.17 115.38 05/04/2020 05:27:24 -79.69, -57.30 115.42 2.88 38
2 05/04/2020 06:17:29 79.66, 110.17 64.55 05/04/2020 06:18:29 79.68, 110.10 64.58 2.31 60
3 05/06/2020 11:01:44 79.70, 39.41 64.00 05/06/2020 11:00:48 79.69, 39.48 63.97 2.08 56
4 05/06/2020 11:51:12 -79.67,-153.17 116.06 05/06/2020 11:51:43 -79.69,-153.29 116.04 3.25 31
5 05/08/2020 17:24:54 79.67, -56.62 63.34 05/08/2020 17:25:07 79.68, -56.48 63.37 3.32 13
6 05/10/2020 22:58:37 -79.68, 40.05 117.23 05/10/2020 22:58:21 -79.71, 40.03 117.21 2.92 16
7 05/13/2020 04:32:18 79.71, 136.81 62.26 05/13/2020 04:31:45 79.70, 136.84 62.25 0.96 33
8 05/13/2020 05:21:46 -79.69, -55.73 117.78 05/13/2020 05:22:39 -79.68, -55.68 117.76 0.95 53
9 05/15/2020 10:06:01 -79.72,-126.53 118.25 05/15/2020 10:04:59 -79.73,-126.67 118.28 2.87 62




NCC Satellite Simultaneous Nadir Overpasses (SNOs) Prediction Service
